Location: Barcelona
(41.3830°N, 2.1830°E)
Time: 00:22:50
(UTC+02:00)

ISS - Pass Details

Date: 15 July 2019
Orbit: 409 x 418 km, 51.6° (Epoch: 22 July)

Event Time Altitude Azimuth Distance (km) Brightness Sun altitude
Rises 03:55:20 0° 307° (NW) 2,347 0.1 -21.3°
Reaches altitude 10° 03:58:03 10° 330° (NNW) 1,482 -0.6 -21.1°
Maximum altitude 04:00:10 16° 10° (N) 1,184 -0.6 -20.9°
Drops below altitude 10° 04:02:17 10° 50° (NE) 1,478 0.1 -20.7°
Sets 04:04:58 0° 73° (ENE) 2,337 0.8 -20.4°
